Home > Weather > Wolfsburg > Past weeks

Flag for Germany Weather for the Past 2 Weeks in Wolfsburg, Lower Saxony, Germany

Now
46 °F

Clear.


Feels Like: 44 °F
Forecast: 44 / 52 °F
Wind: 6 mph from South

Location: Braunschweig Wolfsburg

Current Time: Feb 6, 2016 at 8:39:15 AM

Latest Report: Feb 6, 2016 at 7:50 AM


Visibility: 10 mi

Pressure: 29.98 "Hg

Humidity: 76%

Dew point: 39 °F

Location of WolfsburgLocation

Historic Weather in Wolfsburg — Graph

°F

Wolfsburg Temperature Yesterday

Maximum temperature yesterday: 46 °F (at 9:50 PM)
Minimum temperature yesterday: 37 °F (at 5:50 AM)
Average temperature yesterday: 41 °F

High & Low Weather Summary for the Past Weeks

 TemperatureHumidityPressure
High54 °F (Feb 1, 12:20 PM)100% (Jan 23, 8:20 AM)30.45 "Hg (Jan 23, 8:20 AM)
Low3 °F (Jan 22, 8:20 AM)54% (Feb 2, 10:50 AM)29.59 "Hg (Jan 30, 3:50 PM)
Average43 °F80%30.06 "Hg
* Reported Jan 22 7:20 AM — Feb 6 7:20 AM, Wolfsburg, Weather by CustomWeather, © 2016

Note: Actual official high and low records may vary slightly from our data, if they occured in-between our weather recording intervals... More about our weather records

Advertising

Wolfsburg Weather History for the Previous 24 Hours

 ConditionsComfort  
Time TempWeatherWind HumidityBarometerVisibility
7:20 AM
Sat, Feb 6
45 °FClear.6 mph81%29.98 "Hg10 mi
6:50 AM46 °FPassing clouds.7 mph82%29.98 "HgN/A
9:50 PM
Fri, Feb 5
46 °FOvercast.10 mph87%30.09 "HgN/A
9:20 PM45 °FMostly cloudy.10 mph93%30.09 "HgN/A
8:50 PM45 °FMostly cloudy.8 mph93%30.12 "HgN/A
8:20 PM45 °FMostly cloudy.13 mph93%30.12 "HgN/A
7:50 PM45 °FMostly cloudy.10 mph87%30.12 "HgN/A
7:20 PM45 °FOvercast.14 mph87%30.12 "HgN/A
6:50 PM45 °FOvercast.12 mph87%30.12 "HgN/A
6:20 PM43 °FMostly cloudy.12 mph93%30.12 "HgN/A
5:50 PM43 °FMostly cloudy.12 mph93%30.12 "HgN/A
5:20 PM43 °FPartly cloudy.13 mph93%30.12 "HgN/A
4:50 PM43 °FBroken clouds.13 mph93%30.12 "HgN/A
4:20 PM43 °FMore clouds than sun.12 mph87%30.12 "HgN/A
3:50 PM41 °FDrizzle. Overcast.10 mph93%30.12 "HgN/A
3:20 PM41 °FDrizzle. Partly sunny.13 mph93%30.12 "Hg6 mi
2:50 PM41 °FLight rain. Low clouds.9 mph93%30.12 "Hg4 mi
2:20 PM41 °FLight rain. Mostly cloudy.12 mph87%30.15 "Hg4 mi
1:50 PM41 °FDrizzle. Overcast.10 mph87%30.15 "HgN/A
1:20 PM39 °FDrizzle. Overcast.9 mph93%30.15 "HgN/A
12:50 PM39 °FDrizzle. Overcast.12 mph87%30.18 "Hg6 mi
12:20 PM39 °FMostly cloudy.12 mph87%30.18 "HgN/A
11:50 AM41 °FMostly cloudy.13 mph81%30.21 "HgN/A
11:20 AM41 °FPartly sunny.15 mph76%30.21 "HgN/A
10:50 AM41 °FSunny.13 mph76%30.21 "Hg10 mi
10:20 AM39 °FSunny.12 mph81%30.21 "Hg10 mi
9:50 AM39 °FPartly sunny.10 mph87%30.24 "HgN/A
9:20 AM39 °FBroken clouds.10 mph81%30.24 "HgN/A
8:50 AM39 °FPartly sunny.9 mph81%30.24 "HgN/A
8:20 AM37 °FOvercast.9 mph87%30.24 "HgN/A
Weather by CustomWeather, © 2016

See weather overviewHow to use our weather pages